Location: Blue Mountain Vista Observatory
(40.6992°N, 75.9422°W)
Time: 12:02:52
(UTC-05:00)

IDEFIX/ARIANE 42P - Visible Passes

Search period start: 22 December 2014 00:00
Search period end: 01 January 2015 00:00
Orbit: 785 x 804 km, 98.3° (Epoch: 21 December)

Date Brightness Start Highest point End Pass type
(mag) Time Alt. Az. Time Alt. Az. Time Alt. Az.
27 Dec 5.6 06:53:06 10° ENE 06:55:16 13° E 06:57:26 10° ESE visible
29 Dec 4.8 19:02:01 11° N 19:02:01 11° N 19:02:17 10° N visible
30 Dec 4.7 18:33:20 11° NNE 18:33:20 11° NNE 18:33:36 10° NNE visible
31 Dec 5.0 19:45:27 11° NNW 19:45:27 11° NNW 19:45:41 10° NNW visible
